Location: �bnet
(46.9957°N, 8.4908°E)
Time: 22:23:15
(UTC+00:00)

SJ 16-02 - Visible Passes

Search period start: 17 September 2021 00:00
Search period end: 27 September 2021 00:00
Orbit: 605 x 617 km, 75.0° (Epoch: 17 September)

Date Brightness Start Highest point End Pass type
(mag) Time Alt. Az. Time Alt. Az. Time Alt. Az.
17 Sep 3.9 20:04:14 10° NE 20:04:14 10° NE 20:04:18 10° NNE visible
17 Sep 4.1 21:41:11 16° NNW 21:41:11 16° NNW 21:42:29 10° N visible
18 Sep 4.8 04:23:59 10° NE 04:24:42 10° NE 04:25:26 10° ENE visible
18 Sep 3.5 20:18:16 17° NNE 20:18:16 17° NNE 20:19:16 10° NNE visible
18 Sep 4.3 21:55:12 14° NNW 21:55:12 14° NNW 21:56:32 10° NNW visible
19 Sep 4.3 04:37:02 10° NNE 04:39:54 17° NE 04:42:45 10° E visible
19 Sep 3.2 20:32:07 25° N 20:32:07 25° N 20:34:03 10° NNE visible
20 Sep 3.2 19:08:43 16° NE 19:08:43 16° NE 19:09:49 10° NE visible
20 Sep 3.1 20:45:36 30° NNW 20:45:36 30° NNW 20:48:38 10° N visible
21 Sep 1.7 19:21:27 43° ENE 19:21:27 43° ENE 19:25:00 10° NNE visible
21 Sep 3.7 20:58:13 19° W 20:59:34 21° NW 21:03:00 10° N visible
22 Sep 4.6 03:43:54 10° NNE 03:45:26 12° NE 03:46:59 10° ENE visible
22 Sep 1.2 19:31:02 10° SSW 19:35:27 87° ESE 19:39:56 10° NNE visible
22 Sep 4.4 21:12:29 10° W 21:14:42 13° NW 21:16:55 10° NNW visible
23 Sep 4.3 03:57:30 10° N 04:00:37 18° NE 04:03:42 10° E visible
23 Sep 2.8 18:09:15 10° SE 18:12:09 17° E 18:15:03 10° NE visible
23 Sep 2.1 19:45:58 10° SW 19:50:17 53° WNW 19:54:39 10° NNE visible
24 Sep 3.5 04:11:46 10° N 04:15:40 29° ENE 04:19:33 10° ESE visible
24 Sep 2.1 18:22:50 10° SSE 18:26:41 30° E 18:30:34 10° NE visible
24 Sep 3.2 20:01:17 10° WSW 20:05:13 31° WNW 20:09:11 10° N visible
25 Sep 2.4 04:26:17 10° N 04:30:37 50° ENE 04:34:54 10° SE visible
25 Sep 1.4 18:37:01 10° S 18:41:20 54° ESE 18:45:41 10° NNE visible
25 Sep 4.0 20:17:04 10° WSW 20:20:16 19° NW 20:23:29 10° N visible
26 Sep 4.6 03:04:08 10° NNE 03:06:10 13° NE 03:08:12 10° ENE visible
26 Sep 1.4 04:40:59 10° NNW 04:45:27 89° ENE 04:49:52 10° SSE visible
26 Sep 1.4 18:51:39 10° SSW 18:56:05 83° WNW 19:00:33 10° NNE visible
26 Sep 4.6 20:33:39 10° WNW 20:35:25 12° NW 20:37:12 10° NNW visible
